Location: Bald Rock
(37.3738°N, 119.9354°W)
Time: 21:03:26
(UTC+00:00)

COSMOS 2455 - Pass Details

Date: 08 September 2024
Orbit: 898 x 910 km, 67.1° (Epoch: 12 October)

Event Time Altitude Azimuth Distance (km) Brightness Sun altitude
Exits shadow 12:37:45 16° 250° (WSW) 2,168 4.2 -12.2°
Maximum altitude 12:41:48 34° 306° (NW) 1,460 3.6 -11.5°
Drops below altitude 10° 12:47:14 10° 10° (N) 2,600 5.6 -10.4°
Sets 12:50:01 0° 20° (NNE) 3,546 6.5 -9.9°
